Home > Weather > Turku > Past weeks

Flag for Finland Weather for the Past 2 Weeks in Turku, Finland

Now
36 °F

Clear.


Feels Like: 36 °F
Forecast: 34 / 55 °F
Wind: 2 mph from Southeast

Location: Turku Airport

Current Time: May 2, 2016 at 1:27:34 AM

Latest Report: May 2, 2016 at 12:50 AM


Visibility: 10 mi

Pressure: 30.30 "Hg

Humidity: 81%

Dew Point: 30 °F

Location of TurkuLocation

Historic Weather in Turku — Graph

°F

Turku Temperature Yesterday

Maximum temperature yesterday: 61 °F (at 3:50 PM)
Minimum temperature yesterday: 28 °F (at 4:20 AM)
Average temperature yesterday: 48 °F

High & Low Weather Summary for the Past Weeks

 TemperatureHumidityPressure
High61 °F (May 1, 3:50 PM)100% (Apr 17, 1:20 AM)30.36 "Hg (Apr 17, 1:20 AM)
Low25 °F (Apr 24, 6:20 AM)25% (Apr 30, 2:50 PM)29.36 "Hg (Apr 25, 5:20 AM)
Average40 °F81%29.81 "Hg
* Reported Apr 17 12:50 AM — May 2 12:20 AM, Turku, Weather by CustomWeather, © 2016

Note: Actual official high and low records may vary slightly from our data, if they occured in-between our weather recording intervals... More about our weather records

Advertising

Turku Weather History for the Previous 24 Hours

Scroll right to see more
 ConditionsComfort  
Time TempWeatherWind HumidityBarometerVisibility
12:20 AM
Mon, May 2
37 °FClear.1 mph75%30.30 "Hg10 mi
11:20 PM
Sun, May 1
39 °FClear.No wind70%30.30 "Hg10 mi
10:50 PM41 °FClear.No wind66%30.30 "Hg10 mi
10:20 PM46 °FSunny.2 mph57%30.30 "Hg10 mi
9:50 PM46 °FSunny.2 mph62%30.30 "Hg10 mi
9:20 PM50 °FScattered clouds.3 mph50%30.30 "HgN/A
8:50 PM54 °FSunny.6 mph41%30.30 "Hg10 mi
8:20 PM55 °FPassing clouds.6 mph38%30.30 "HgN/A
7:50 PM57 °FSunny.9 mph36%30.27 "Hg10 mi
7:20 PM59 °FSunny.8 mph34%30.27 "Hg10 mi
6:50 PM59 °FPassing clouds.8 mph34%30.27 "HgN/A
6:20 PM61 °FPassing clouds.9 mph31%30.27 "HgN/A
5:50 PM61 °FPassing clouds.7 mph34%30.30 "HgN/A
5:20 PM61 °FPassing clouds.9 mph31%30.30 "HgN/A
4:50 PM61 °FScattered clouds.9 mph34%30.30 "HgN/A
4:20 PM61 °FPassing clouds.9 mph31%30.30 "HgN/A
3:50 PM61 °FPassing clouds.6 mph27%30.30 "HgN/A
3:20 PM59 °FSunny.2 mph31%30.30 "Hg10 mi
2:50 PM59 °FPassing clouds.6 mph31%30.33 "HgN/A
2:20 PM59 °FSunny.5 mph31%30.33 "Hg10 mi
1:50 PM59 °FPassing clouds.7 mph29%30.33 "HgN/A
1:20 PM57 °FPassing clouds.6 mph33%30.33 "HgN/A
12:50 PM57 °FPassing clouds.7 mph33%30.33 "HgN/A
12:20 PM57 °FPassing clouds.8 mph33%30.33 "HgN/A
11:50 AM57 °FSunny.5 mph31%30.33 "Hg10 mi
11:20 AM55 °FSunny.2 mph33%30.36 "Hg10 mi
10:50 AM55 °FPassing clouds.3 mph36%30.36 "HgN/A
9:50 AM52 °FPassing clouds.3 mph50%30.36 "HgN/A
9:20 AM50 °FPassing clouds.5 mph54%30.36 "HgN/A
8:50 AM48 °FPassing clouds.3 mph58%30.33 "HgN/A
8:20 AM45 °FPassing clouds.3 mph71%30.33 "HgN/A
7:20 AM37 °FSunny.No wind87%30.33 "Hg10 mi
6:50 AM34 °FSunny.1 mph87%30.33 "Hg10 mi
6:20 AM32 °FClear.1 mph93%30.33 "Hg10 mi
5:20 AM28 °FClear.No wind100%30.33 "Hg10 mi
4:50 AM30 °FClear.No wind93%30.33 "Hg10 mi
4:20 AM28 °FClear.No wind100%30.33 "Hg10 mi
3:50 AM30 °FClear.No wind93%30.33 "Hg10 mi
3:20 AM30 °FClear.No wind93%30.33 "Hg10 mi
2:50 AM32 °FClear.2 mph93%30.33 "Hg10 mi
2:20 AM34 °FClear.No wind87%30.33 "Hg10 mi
1:50 AM32 °FClear.2 mph93%30.33 "Hg10 mi
1:20 AM34 °FClear.2 mph87%30.33 "Hg10 mi
Weather by CustomWeather, © 2016

See weather overviewHow to use our weather pages